EUS29JP EGJJ-LFBD

Flight info

Callsign EUS29JP
Flight time 0h 52m
Altitude 35000
Route REN DCT NTS DCT CNA
Aircraft A320/M-SDE3FGHIRWY/LB1

Departure

Time 2026-05-04 13:24
Airport Jersey Airport (EGJJ)

Arrival

Time 2026-05-04 14:17
Airport Bordeaux–Mérignac Airport (LFBD)
Time Latitude Longitude Altitude Speed Heading
2026-05-04 13:04 49.20563 -2.19639 280 ft 0 kts 161°
2026-05-04 13:17 49.20555 -2.19635 280 ft 4 kts 341°
2026-05-04 13:17 49.20579 -2.19649 280 ft 3 kts 339°
2026-05-04 13:17 49.20576 -2.19647 280 ft 0 kts 339°
2026-05-04 13:20 49.20584 -2.19651 280 ft 5 kts 339°
2026-05-04 13:20 49.20613 -2.19706 280 ft 10 kts 253°
2026-05-04 13:20 49.20606 -2.19859 280 ft 19 kts 265°
2026-05-04 13:20 49.20526 -2.19955 280 ft 12 kts 234°
2026-05-04 13:21 49.20533 -2.20070 280 ft 11 kts 287°
2026-05-04 13:21 49.20552 -2.20163 285 ft 8 kts 287°
2026-05-04 13:21 49.20565 -2.20230 286 ft 5 kts 287°
2026-05-04 13:21 49.20576 -2.20283 282 ft 6 kts 287°
2026-05-04 13:22 49.20590 -2.20354 280 ft 8 kts 286°
2026-05-04 13:22 49.20605 -2.20434 280 ft 8 kts 286°
2026-05-04 13:22 49.20618 -2.20506 281 ft 7 kts 285°
2026-05-04 13:22 49.20626 -2.20603 281 ft 13 kts 272°
2026-05-04 13:23 49.20683 -2.20690 280 ft 15 kts 17°
2026-05-04 13:23 49.20712 -2.20583 282 ft 0 kts 83°
2026-05-04 13:23 49.20736 -2.20302 283 ft 69 kts 82°
2026-05-04 13:24 49.20828 -2.19188 285 ft 138 kts 83°
2026-05-04 13:24 49.20961 -2.17585 772 ft 155 kts 81°
2026-05-04 13:24 49.21096 -2.15957 1622 ft 155 kts 81°
2026-05-04 13:25 49.21004 -2.12305 2574 ft 202 kts 121°
2026-05-04 13:25 49.19841 -2.10960 3044 ft 225 kts 160°
2026-05-04 13:25 49.18246 -2.10274 3600 ft 249 kts 167°
2026-05-04 13:25 49.16489 -2.09712 4304 ft 264 kts 168°
2026-05-04 13:26 49.14657 -2.09174 5263 ft 269 kts 169°
2026-05-04 13:26 49.12810 -2.08622 6249 ft 273 kts 168°
2026-05-04 13:26 49.10938 -2.08046 7224 ft 277 kts 168°
2026-05-04 13:26 49.09036 -2.07443 8170 ft 280 kts 167°
2026-05-04 13:27 49.07124 -2.06823 9100 ft 283 kts 167°
2026-05-04 13:27 49.05205 -2.06193 10017 ft 286 kts 167°
2026-05-04 13:27 49.03203 -2.05528 10528 ft 307 kts 167°
2026-05-04 13:27 49.01050 -2.04813 11085 ft 321 kts 167°
2026-05-04 13:28 48.98836 -2.04078 11883 ft 326 kts 167°
2026-05-04 13:28 48.96603 -2.03338 12727 ft 330 kts 167°
2026-05-04 13:28 48.94369 -2.02597 13538 ft 332 kts 167°
2026-05-04 13:28 48.92081 -2.01841 14338 ft 335 kts 167°
2026-05-04 13:29 48.89818 -2.01093 15092 ft 337 kts 167°
2026-05-04 13:29 48.87511 -2.00328 15840 ft 340 kts 167°
2026-05-04 13:29 48.85196 -1.99564 16553 ft 343 kts 167°
2026-05-04 13:29 48.82860 -1.98794 17232 ft 346 kts 168°
2026-05-04 13:30 48.80487 -1.98012 17943 ft 348 kts 168°
2026-05-04 13:30 48.78103 -1.97228 18627 ft 351 kts 168°
2026-05-04 13:30 48.75717 -1.96449 19290 ft 353 kts 168°
2026-05-04 13:30 48.73309 -1.95664 19941 ft 355 kts 168°
2026-05-04 13:31 48.70884 -1.94870 20579 ft 357 kts 168°
2026-05-04 13:31 48.68453 -1.94075 21207 ft 358 kts 168°
2026-05-04 13:31 48.66008 -1.93276 21799 ft 360 kts 168°
2026-05-04 13:31 48.63549 -1.92474 22375 ft 362 kts 168°
2026-05-04 13:32 48.61086 -1.91672 22920 ft 365 kts 168°
2026-05-04 13:32 48.58590 -1.90855 23470 ft 367 kts 168°
2026-05-04 13:32 48.56089 -1.90034 24003 ft 369 kts 168°
2026-05-04 13:32 48.53573 -1.89210 24519 ft 371 kts 168°
2026-05-04 13:33 48.51043 -1.88382 25016 ft 373 kts 168°
2026-05-04 13:33 48.48519 -1.87560 25495 ft 375 kts 168°
2026-05-04 13:33 48.46093 -1.86775 25934 ft 377 kts 168°
2026-05-04 13:33 48.43528 -1.85943 26385 ft 378 kts 168°
2026-05-04 13:34 48.40937 -1.85103 26832 ft 380 kts 168°
2026-05-04 13:34 48.39222 -1.84548 27131 ft 381 kts 168°
2026-05-04 13:34 48.35771 -1.83434 27689 ft 384 kts 168°
2026-05-04 13:34 48.33150 -1.82590 28101 ft 386 kts 168°
2026-05-04 13:35 48.30509 -1.81743 28508 ft 388 kts 168°
2026-05-04 13:35 48.27309 -1.80718 28989 ft 390 kts 168°
2026-05-04 13:35 48.25672 -1.80193 29220 ft 391 kts 168°
2026-05-04 13:36 48.23022 -1.79339 29598 ft 393 kts 168°
2026-05-04 13:36 48.20335 -1.78471 29973 ft 394 kts 168°
2026-05-04 13:36 48.17654 -1.77608 30335 ft 396 kts 168°
2026-05-04 13:36 48.14944 -1.76737 30663 ft 398 kts 169°
2026-05-04 13:37 48.12232 -1.75868 30953 ft 401 kts 169°
2026-05-04 13:37 48.09500 -1.74995 31242 ft 403 kts 169°
2026-05-04 13:37 48.06732 -1.74167 31525 ft 405 kts 173°
2026-05-04 13:37 48.03930 -1.73726 31834 ft 406 kts 175°
2026-05-04 13:38 48.01124 -1.73324 32222 ft 406 kts 175°
2026-05-04 13:38 47.98306 -1.72924 32601 ft 405 kts 175°
2026-05-04 13:38 47.95505 -1.72527 32963 ft 405 kts 175°
2026-05-04 13:38 47.92686 -1.72127 33330 ft 405 kts 175°
2026-05-04 13:39 47.89919 -1.71733 33697 ft 405 kts 175°
2026-05-04 13:39 47.87120 -1.71332 34028 ft 405 kts 175°
2026-05-04 13:39 47.84303 -1.70930 34374 ft 405 kts 175°
2026-05-04 13:39 47.81499 -1.70531 34680 ft 406 kts 175°
2026-05-04 13:40 47.78687 -1.70129 34914 ft 408 kts 175°
2026-05-04 13:40 47.73106 -1.69321 34971 ft 398 kts 175°
2026-05-04 13:41 47.67610 -1.68534 34971 ft 396 kts 175°
2026-05-04 13:41 47.62127 -1.67764 34971 ft 396 kts 175°
2026-05-04 13:42 47.53916 -1.66616 34970 ft 395 kts 175°
2026-05-04 13:42 47.48451 -1.65837 34967 ft 394 kts 175°
2026-05-04 13:43 47.42989 -1.65064 34962 ft 394 kts 176°
2026-05-04 13:43 47.37547 -1.64302 34960 ft 393 kts 176°
2026-05-04 13:44 47.32091 -1.63536 34955 ft 394 kts 176°
2026-05-04 13:44 47.26637 -1.62762 34956 ft 393 kts 176°
2026-05-04 13:45 47.21187 -1.62001 34956 ft 394 kts 176°
2026-05-04 13:45 47.15807 -1.60543 34956 ft 396 kts 162°
2026-05-04 13:46 47.10963 -1.56711 34953 ft 400 kts 152°
2026-05-04 13:46 47.06182 -1.52436 34952 ft 400 kts 152°
2026-05-04 13:47 47.01460 -1.48247 34952 ft 400 kts 152°
2026-05-04 13:47 46.96693 -1.44015 34953 ft 400 kts 152°
2026-05-04 13:48 46.91926 -1.39781 34953 ft 401 kts 152°
2026-05-04 13:48 46.87152 -1.35555 34956 ft 401 kts 152°
2026-05-04 13:49 46.82392 -1.31353 34956 ft 401 kts 152°
2026-05-04 13:49 46.77615 -1.27144 34953 ft 401 kts 152°
2026-05-04 13:50 46.72833 -1.22946 34956 ft 401 kts 152°
2026-05-04 13:50 46.68082 -1.18771 34955 ft 401 kts 152°
2026-05-04 13:51 46.63303 -1.14576 34956 ft 401 kts 152°
2026-05-04 13:51 46.58513 -1.10391 34959 ft 402 kts 153°
2026-05-04 13:52 46.51322 -1.04128 34738 ft 402 kts 153°
2026-05-04 13:52 46.48932 -1.02051 34481 ft 400 kts 153°
2026-05-04 13:53 46.46547 -0.99982 34236 ft 397 kts 153°
2026-05-04 13:53 46.44193 -0.97938 33981 ft 394 kts 153°
2026-05-04 13:53 46.41856 -0.95911 33728 ft 391 kts 153°
2026-05-04 13:54 46.37215 -0.91883 33229 ft 386 kts 153°
2026-05-04 13:54 46.34916 -0.89890 32926 ft 381 kts 153°
2026-05-04 13:54 46.30407 -0.85988 32005 ft 374 kts 153°
2026-05-04 13:55 46.28202 -0.84089 31558 ft 370 kts 153°
2026-05-04 13:55 46.23845 -0.80348 30689 ft 361 kts 153°
2026-05-04 13:55 46.21699 -0.78507 30270 ft 357 kts 153°
2026-05-04 13:56 46.19572 -0.76679 29849 ft 353 kts 153°
2026-05-04 13:56 46.17483 -0.74880 29453 ft 348 kts 153°
2026-05-04 13:56 46.13373 -0.71349 28676 ft 339 kts 153°
2026-05-04 13:57 46.11365 -0.69630 28306 ft 334 kts 153°
2026-05-04 13:57 46.09378 -0.67936 27934 ft 330 kts 153°
2026-05-04 13:58 46.03548 -0.62976 26809 ft 318 kts 153°
2026-05-04 13:58 45.99782 -0.59765 26046 ft 312 kts 152°
2026-05-04 13:58 45.97915 -0.58171 25661 ft 310 kts 153°
2026-05-04 13:59 45.96074 -0.56600 25265 ft 307 kts 153°
2026-05-04 13:59 45.94236 -0.55033 24877 ft 305 kts 153°
2026-05-04 13:59 45.90610 -0.51955 24081 ft 301 kts 153°
2026-05-04 14:00 45.88803 -0.50424 23676 ft 300 kts 153°
2026-05-04 14:00 45.85224 -0.47397 22884 ft 297 kts 153°
2026-05-04 14:00 45.83451 -0.45898 22500 ft 296 kts 153°
2026-05-04 14:01 45.81695 -0.44413 22117 ft 295 kts 152°
2026-05-04 14:01 45.79947 -0.42933 21743 ft 294 kts 153°
2026-05-04 14:01 45.76436 -0.39975 21002 ft 291 kts 153°
2026-05-04 14:02 45.74696 -0.38509 20630 ft 290 kts 153°
2026-05-04 14:02 45.72950 -0.37040 20260 ft 290 kts 152°
2026-05-04 14:02 45.71219 -0.35586 19896 ft 289 kts 153°
2026-05-04 14:02 45.69486 -0.34132 19537 ft 288 kts 152°
2026-05-04 14:03 45.67762 -0.32686 19157 ft 287 kts 153°
2026-05-04 14:03 45.65963 -0.31498 18795 ft 284 kts 163°
2026-05-04 14:03 45.64040 -0.30844 18420 ft 283 kts 174°
2026-05-04 14:03 45.62092 -0.30531 18049 ft 282 kts 175°
2026-05-04 14:04 45.58184 -0.29898 17317 ft 282 kts 174°
2026-05-04 14:04 45.56236 -0.29577 16944 ft 283 kts 174°
2026-05-04 14:04 45.54286 -0.29254 16592 ft 283 kts 174°
2026-05-04 14:05 45.50375 -0.28610 15882 ft 283 kts 174°
2026-05-04 14:05 45.48411 -0.28290 15525 ft 283 kts 174°
2026-05-04 14:05 45.46457 -0.27973 15168 ft 283 kts 174°
2026-05-04 14:06 45.44489 -0.27653 14808 ft 284 kts 174°
2026-05-04 14:06 45.42532 -0.27334 14449 ft 284 kts 174°
2026-05-04 14:06 45.40574 -0.27013 14086 ft 284 kts 174°
2026-05-04 14:06 45.38606 -0.26693 13740 ft 286 kts 174°
2026-05-04 14:07 45.36628 -0.26370 13386 ft 287 kts 174°
2026-05-04 14:07 45.34641 -0.26045 13020 ft 286 kts 174°
2026-05-04 14:07 45.32670 -0.25725 12688 ft 286 kts 174°
2026-05-04 14:07 45.30692 -0.25404 12332 ft 285 kts 174°
2026-05-04 14:08 45.28734 -0.25085 11972 ft 283 kts 174°
2026-05-04 14:08 45.26787 -0.24771 11634 ft 282 kts 174°
2026-05-04 14:08 45.24835 -0.24459 11279 ft 280 kts 174°
2026-05-04 14:08 45.22904 -0.24151 10915 ft 279 kts 174°
2026-05-04 14:09 45.19082 -0.23580 10225 ft 276 kts 180°
2026-05-04 14:09 45.17186 -0.23985 9867 ft 273 kts 199°
2026-05-04 14:10 45.14174 -0.27041 9180 ft 269 kts 226°
2026-05-04 14:10 45.12872 -0.28931 8822 ft 268 kts 226°
2026-05-04 14:10 45.11567 -0.30813 8467 ft 266 kts 226°
2026-05-04 14:10 45.10286 -0.32655 8122 ft 266 kts 226°
2026-05-04 14:11 45.08958 -0.34560 7760 ft 275 kts 225°
2026-05-04 14:11 45.06227 -0.38386 7032 ft 276 kts 223°
2026-05-04 14:11 45.04771 -0.40157 6285 ft 276 kts 222°
2026-05-04 14:12 45.03379 -0.42024 5618 ft 274 kts 226°
2026-05-04 14:12 45.02057 -0.43948 5195 ft 272 kts 227°
2026-05-04 14:12 44.99441 -0.47738 4459 ft 266 kts 227°
2026-05-04 14:13 44.98152 -0.49595 4106 ft 265 kts 227°
2026-05-04 14:13 44.96863 -0.51451 3772 ft 263 kts 227°
2026-05-04 14:13 44.95596 -0.53274 3411 ft 258 kts 227°
2026-05-04 14:13 44.94350 -0.55066 3067 ft 254 kts 227°
2026-05-04 14:14 44.93119 -0.56835 2740 ft 250 kts 227°
2026-05-04 14:14 44.90727 -0.60270 2102 ft 236 kts 227°
2026-05-04 14:14 44.89658 -0.61801 1794 ft 205 kts 227°
2026-05-04 14:15 44.87874 -0.64360 1306 ft 163 kts 227°
2026-05-04 14:15 44.86469 -0.66372 918 ft 135 kts 228°
2026-05-04 14:16 44.85181 -0.68219 576 ft 131 kts 227°
2026-05-04 14:16 44.84549 -0.69121 399 ft 128 kts 228°
2026-05-04 14:17 44.83332 -0.70862 166 ft 107 kts 226°
2026-05-04 14:17 44.82989 -0.71360 161 ft 37 kts 225°
2026-05-04 14:17 44.82875 -0.71584 165 ft 7 kts 284°
2026-05-04 14:18 44.82885 -0.71633 166 ft 5 kts 286°
2026-05-04 14:18 44.82914 -0.71773 165 ft 10 kts 287°
2026-05-04 14:19 44.82961 -0.71998 166 ft 14 kts 286°
2026-05-04 14:19 44.83005 -0.72133 164 ft 16 kts 330°
2026-05-04 14:19 44.83115 -0.72105 163 ft 16 kts 17°
2026-05-04 14:19 44.83165 -0.71988 163 ft 15 kts 103°
2026-05-04 14:20 44.83139 -0.71861 163 ft 11 kts 107°
2026-05-04 14:20 44.83122 -0.71780 164 ft 6 kts 107°
2026-05-04 14:20 44.83111 -0.71730 164 ft 8 kts 107°
2026-05-04 14:21 44.83036 -0.71386 162 ft 25 kts 107°
2026-05-04 14:21 44.82988 -0.71149 158 ft 26 kts 107°
2026-05-04 14:21 44.82939 -0.70920 163 ft 23 kts 104°
2026-05-04 14:21 44.82979 -0.70777 163 ft 11 kts 16°
2026-05-04 14:22 44.83031 -0.70729 163 ft 8 kts 48°
2026-05-04 14:22 44.83065 -0.70677 163 ft 7 kts 48°
2026-05-04 14:22 44.83106 -0.70618 163 ft 17 kts 46°
2026-05-04 14:22 44.83200 -0.70484 163 ft 18 kts 44°
2026-05-04 14:23 44.83244 -0.70423 163 ft 0 kts 44°
2026-05-04 14:23 44.83248 -0.70385 163 ft 6 kts 98°
2026-05-04 14:23 44.83237 -0.70349 163 ft 5 kts 116°
2026-05-04 14:24 44.83230 -0.70328 163 ft 0 kts 116°